Location: Lachepaillet
(43.4918°N, 1.4874°W)
Time: 23:39:22
(UTC+00:00)

Cosmos 841 Rocket - Pass Details

Date: 15 May 2026
Orbit: 742 x 767 km, 74.0° (Epoch: 9 June)

Event Time Altitude Azimuth Distance (km) Brightness Sun altitude
Exits shadow 23:27:22 70° 273° (W) 809 3.5 -26.9°
Maximum altitude 23:27:34 71° 291° (WNW) 805 3.5 -26.9°
Drops below altitude 10° 23:32:48 10° 16° (NNE) 2,308 6.8 -27.1°
Sets 23:35:13 0° 19° (NNE) 3,241 7.7 -27.1°
